This is the latest recevied weather packets stored in our database for station/object IU1OLT-6. If no packets are shown the sender has not sent any weather packets the latest 10 day(s).
| Time | Temp. | Humidity | Pressure | Rain* | Wind** | Luminosity | Snow |
|---|---|---|---|---|---|---|---|
| 1788354274 | 16.11° C | 93% | 1016.3 hPa | 0 mm | - | - | - |
| 1788353315 | 16.67° C | 93% | 1016.5 hPa | 0 mm | - | - | - |
| 1788352259 | 16.67° C | 91% | 1016.7 hPa | 0 mm | - | - | - |
| 1788351299 | 17.22° C | 87% | 1016.6 hPa | 0 mm | - | - | - |
| 1788350537 | 16.11° C | 91% | 1016.8 hPa | 0 mm | - | - | - |
| 1788350339 | 16.11° C | 91% | 1016.8 hPa | 0 mm | - | - | - |
| 1788349379 | 16.67° C | 89% | 1016.6 hPa | 0 mm | - | - | - |
| 1788348419 | 16.67° C | 88% | 1016.7 hPa | 0 mm | - | - | - |
| 1788347459 | 16.67° C | 92% | 1016.8 hPa | 0 mm | - | - | - |
| 1788346499 | 16.11° C | 87% | 1016.9 hPa | 0 mm | - | - | - |
| 1788345539 | 18.33° C | 84% | 1017 hPa | 0 mm | - | - | - |
| 1788344579 | 16.11° C | 93% | 1017.3 hPa | 0 mm | - | - | - |
| 1788343619 | 17.78° C | 89% | 1017.2 hPa | 0 mm | - | - | - |
| 1788342659 | 16.67° C | 89% | 1017.2 hPa | 0 mm | - | - | - |
| 1788341746 | 17.78° C | 86% | 1017.1 hPa | 0 mm | - | - | - |
| 1788340835 | 16.67° C | 82% | 1017.2 hPa | 0 mm | - | - | - |
| 1788339875 | 16.67° C | 82% | 1017.1 hPa | 0 mm | - | - | - |
| 1788338915 | 17.22° C | 86% | 1017 hPa | 0 mm | - | - | - |
| 1788337955 | 17.78° C | 66% | 1016.8 hPa | 0 mm | - | - | - |
| 1788336995 | 18.33° C | 75% | 1016.6 hPa | 0 mm | - | - | - |
| 1788336035 | 17.78° C | 64% | 1016.4 hPa | 0 mm | - | - | - |
| 1788335075 | 17.78° C | 68% | 1016.4 hPa | 0 mm | - | - | - |
| 1788334163 | 17.78° C | 69% | 1016.1 hPa | 0 mm | - | - | - |
| 1788332339 | 16.67° C | 75% | 1016 hPa | 0 mm | - | - | - |
| 1788331427 | 16.11° C | 79% | 1016 hPa | 0 mm | - | - | - |
* Rain latest hour (hover to see other rain measurements)
** Current wind speed in m/s (hover to see current wind gust speed)